Fairbanks, AK

10:47 AM AKST on February 19, 2018 (GMT -0900)
Fairbanks International

Weather History for PAFA - November, 2012

Change the Weather History Date:

Wednesday, November 21, 2012

  Actual Average Record
Temperature  
Mean Temperature -17 °F 0 °F  
Max Temperature -8 °F 8 °F 41 °F (1947)
Min Temperature -26 °F -7 °F -38 °F (2011)
Degree Days  
Heating Degree Days 82 65  
Month to date heating degree days 1459 1274  
Since 1 July heating degree days 3744 3533  
Cooling Degree Days 0 0  
Month to date cooling degree days 0 0  
Year to date cooling degree days 34 61  
Moisture  
Dew Point -23 °F    
Average Humidity 73    
Maximum Humidity 82    
Minimum Humidity 59    
Precipitation  
Precipitation 0.00 in 0.02 in 0.53 in (1956)
Month to date precipitation 0.29 0.48  
Year to date precipitation 9.43 9.98  
Snow  
Snow 0.00 in 0.50 in 6.30 in (1956)
Month to date snowfall 4.2 9.4  
Since 1 July snowfall 11.3 22.0  
Since 1 September snowfall 11.3 22.0  
Snow Depth 0.00 in    
Sea Level Pressure  
Sea Level Pressure 30.13 in    
Wind  
Wind Speed 0 mph (North)    
Max Wind Speed 0 mph    
Max Gust Speed -    
Visibility 9 miles    
Events      
T = Trace of Precipitation, MM = Missing Value Source: NWS Daily Summary

Daily Weather History Graph

Daily Weather History Graph

Search for Another Location

Airport or City:

Trip Planner

Search our weather history database for the weather conditions in past years. The results will help you decide how hot, cold, wet, or windy it might be!

Date:

Astronomy

Nov. 21, 2012 Rise Set
Actual Time 9:49 AM AKST 3:25 PM AKST
Civil Twilight 8:41 AM AKST 4:32 PM AKST
Nautical Twilight 7:37 AM AKST 5:36 PM AKST
Astronomical Twilight 6:38 AM AKST 6:35 PM AKST
Moon 1:56 PM AKST (11/21) 12:54 AM AKST (11/21)
Length of Visible Light 7h 50m
Length of Day
5h 35m
Waxing Gibbous, 63% of the Moon is Illuminated
Nov 21
Waxing Gibbous
Nov 28
Full
Dec 6
Last Quarter
Dec 12
New
Dec 19
First Quarter

Hourly Weather History & Observations

Time (AKST) Temp. Dew Point Humidity Pressure Visibility Wind Dir Wind Speed Gust Speed Precip Events Conditions
12:53 AM -23.1 °F -29.0 °F 74% 30.09 in 10.0 mi Calm Calm - N/A   Clear
1:53 AM -23.1 °F -29.0 °F 74% 30.09 in 10.0 mi Calm Calm - N/A   Clear
3:53 AM -25.1 °F -31.0 °F 74% 30.09 in 10.0 mi Calm Calm - N/A   Scattered Clouds
4:53 AM -20.9 °F -27.0 °F 73% 30.10 in 10.0 mi Calm Calm - N/A   Scattered Clouds
5:53 AM -20.0 °F -26.0 °F 74% 30.10 in 10.0 mi Calm Calm - N/A   Mostly Cloudy
6:53 AM -17.0 °F -23.1 °F 74% 30.10 in 10.0 mi Calm Calm - N/A   Mostly Cloudy
7:53 AM -14.1 °F -18.9 °F 79% 30.11 in 10.0 mi Calm Calm - N/A   Overcast
8:53 AM -13.0 °F -18.0 °F 78% 30.10 in 10.0 mi Calm Calm - N/A   Overcast
9:53 AM -11.0 °F -16.1 °F 78% 30.11 in 10.0 mi Calm Calm - N/A   Mostly Cloudy
10:53 AM -9.9 °F -15.0 °F 78% 30.12 in 10.0 mi Calm Calm - N/A   Overcast
11:53 AM -9.0 °F -15.0 °F 75% 30.13 in 10.0 mi Calm Calm - N/A   Overcast
12:53 PM -9.0 °F -15.0 °F 75% 30.13 in 10.0 mi Calm Calm - N/A   Mostly Cloudy
1:53 PM -9.9 °F -16.1 °F 74% 30.13 in 10.0 mi Calm Calm - N/A   Scattered Clouds
2:53 PM -11.9 °F -18.0 °F 74% 30.13 in 10.0 mi Calm Calm - N/A   Partly Cloudy
3:53 PM -16.1 °F -20.0 °F 82% 30.14 in 10.0 mi Calm Calm - N/A   Partly Cloudy
4:53 PM -18.0 °F -23.1 °F 78% 30.14 in 10.0 mi Calm Calm - N/A   Scattered Clouds
5:53 PM -18.9 °F -25.1 °F 74% 30.15 in 8.0 mi Calm Calm - N/A   Scattered Clouds
6:53 PM -20.9 °F -27.0 °F 73% 30.16 in 8.0 mi Calm Calm - N/A   Clear
7:53 PM -20.9 °F -27.0 °F 73% 30.16 in 8.0 mi Calm Calm - N/A   Clear
8:53 PM -20.9 °F -27.0 °F 73% 30.17 in 8.0 mi Calm Calm - N/A   Clear
9:53 PM -20.0 °F -26.0 °F 74% 30.17 in 8.0 mi Calm Calm - N/A   Scattered Clouds
10:53 PM -18.0 °F -24.0 °F 74% 30.18 in 8.0 mi Calm Calm - N/A   Mostly Cloudy
11:53 PM -15.0 °F -20.0 °F 78% 30.19 in 10.0 mi Calm Calm - N/A   Mostly Cloudy